sat.trackr.live / text

‹ back to catalog

ESEO

NORAD 43792 · 2018-099AL

PAYLOAD ACTIVE UNKNOWN

§ Identity

Operator
Country
ESA
Launch date
2018-12-03
Launch site
AFWTR
Launch vehicle
Mass (kg)
RCS (m²)

External: N2YO · Heavens-Above · Gunter

§ Orbital elements

Epoch: 2026-05-25T02:19:55.265088Z

Period
95.73 min
Inclination
97.3994°
Eccentricity
0.0013686
Mean motion
15.04167457 rev/d
Perigee alt
544.6 km
Apogee alt
563.5 km
Semi-major
6,932.2 km
B*
9.0250e-5
RAAN
183.4741°
Arg perigee
58.1401°
Mean anomaly
302.1155°
Rev number
40,833

§ Raw data

ESEO1 43792U 18099AL  26145.09716742  .00001196  00000+0  90250-4 0  99922 43792  97.3994 183.4741 0013686  58.1401 302.1155 15.04167457408334

JSON: /api/v1/satellites/43792 · /tle

For live sub-satellite position, see the globe view (requires WebGL).

§ Visibility from observer

Set your observer location to see the next 7 days of passes ≥ 10°. The values pass through the URL so the page stays shareable.

No JS? Fill the form by hand. The geolocation button needs JavaScript.

§ Radio — SatNOGS DB

ModeDescriptionDownlinkUplink
BPSK BPSK1k2 AX25 FUNcube-4 Beacon 145.895 MHz
BPSK BPSK4k8 AX25 FUNcube-4 Beacon 145.895 MHz
FM FM 145.895 MHz 1.264 GHz
GMSK GMSK4k8 AX25 ESEO TLM 437.000 MHz
GMSK GMSK9k6 AX25 ESEO TLM 437.000 MHz

5 transmitters · refreshed weekly from db.satnogs.org